| time (UTC) | temp F | wind direction | speed knots | gust knots | rain 1hr in | rain 24hr in | rain mn in | humidity % | barometer mb |
| 20260507105609 | 54 | 236 | 3.5 | 12.2 | 0.00 | 0.00 | 0.00 | 48 | 1018.5 |
| 20260507105001 | 54 | 237 | 5.2 | 12.2 | 0.00 | 0.00 | 0.00 | 48 | 1018.4 |
| 20260507104600 | 54 | 243 | 4.3 | 10.4 | 0.00 | 0.00 | 0.00 | 48 | 1018.4 |
| 20260507104100 | 54 | 239 | 3.5 | 12.2 | 0.00 | 0.00 | 0.00 | 47 | 1018.4 |
| 20260507103600 | 54 | 265 | 5.2 | 12.2 | 0.00 | 0.00 | 0.00 | 46 | 1018.3 |
| 20260507103059 | 54 | 266 | 5.2 | 12.2 | 0.00 | 0.00 | 0.00 | 46 | 1018.3 |
| 20260507102558 | 54 | 259 | 4.3 | 12.2 | 0.00 | 0.00 | 0.00 | 47 | 1018.4 |
| 20260507102058 | 54 | 242 | 3.5 | 11.3 | 0.00 | 0.00 | 0.00 | 47 | 1018.4 |
| 20260507101607 | 54 | 290 | 5.2 | 15.6 | 0.00 | 0.00 | 0.00 | 46 | 1018.5 |
| 20260507101056 | 54 | 224 | 4.3 | 15.6 | 0.00 | 0.00 | 0.00 | 46 | 1018.5 |
| 20260507100559 | 54 | 237 | 2.6 | 12.2 | 0.00 | 0.00 | 0.00 | 46 | 1018.4 |
| 20260507100058 | 54 | 239 | 4.3 | 9.6 | 0.00 | 0.00 | 0.00 | 46 | 1018.4 |
| 20260507095558 | 55 | 212 | 3.5 | 8.7 | 0.00 | 0.00 | 0.00 | 46 | 1018.4 |
| 20260507095055 | 55 | 244 | 3.5 | 8.7 | 0.00 | 0.00 | 0.00 | 46 | 1018.3 |
| 20260507094600 | 55 | 294 | 3.5 | 9.6 | 0.00 | 0.00 | 0.00 | 46 | 1018.3 |
| 20260507094057 | 55 | 184 | 3.5 | 11.3 | 0.00 | 0.00 | 0.00 | 46 | 1018.2 |
| 20260507093552 | 55 | 227 | 4.3 | 11.3 | 0.00 | 0.00 | 0.00 | 46 | 1018.0 |
| 20260507093052 | 55 | 211 | 4.3 | 10.4 | 0.00 | 0.00 | 0.00 | 45 | 1017.9 |
| 20260507092551 | 55 | 242 | 3.5 | 12.2 | 0.00 | 0.00 | 0.00 | 44 | 1017.9 |
| 20260507092050 | 55 | 236 | 3.5 | 13.0 | 0.00 | 0.00 | 0.00 | 45 | 1017.8 |
| 20260507091600 | 55 | 274 | 4.3 | 13.0 | 0.00 | 0.00 | 0.00 | 45 | 1017.6 |
| 20260507091049 | 56 | 277 | 5.2 | 15.6 | 0.00 | 0.00 | 0.00 | 45 | 1017.6 |
| 20260507090549 | 56 | 184 | 6.1 | 20.0 | 0.00 | 0.00 | 0.00 | 44 | 1017.6 |
| 20260507090108 | 56 | 250 | 5.2 | 20.0 | 0.00 | 0.00 | 0.00 | 44 | 1017.6 |
| 20260507085549 | 56 | 217 | 7.8 | 20.0 | 0.00 | 0.00 | 0.00 | 45 | 1017.4 |
| 20260507085048 | 56 | 250 | 4.3 | 14.8 | 0.00 | 0.00 | 0.00 | 44 | 1017.4 |
| 20260507084547 | 56 | 257 | 3.5 | 14.8 | 0.00 | 0.00 | 0.00 | 44 | 1017.4 |
| 20260507084046 | 56 | 216 | 3.5 | 14.8 | 0.00 | 0.00 | 0.00 | 44 | 1017.4 |
| 20260507083546 | 56 | 254 | 4.3 | 13.0 | 0.00 | 0.00 | 0.00 | 43 | 1017.3 |
| 20260507083045 | 56 | 223 | 3.5 | 10.4 | 0.00 | 0.00 | 0.00 | 44 | 1017.3 |
| 20260507082547 | 56 | 246 | 2.6 | 11.3 | 0.00 | 0.00 | 0.00 | 43 | 1017.1 |
| 20260507082043 | 56 | 267 | 2.6 | 11.3 | 0.00 | 0.00 | 0.00 | 43 | 1017.0 |
| 20260507081552 | 56 | 205 | 4.3 | 9.6 | 0.00 | 0.00 | 0.00 | 43 | 1016.9 |
| 20260507081041 | 56 | 210 | 2.6 | 6.1 | 0.00 | 0.00 | 0.00 | 43 | 1016.9 |
| 20260507080540 | 57 | 226 | 2.6 | 8.7 | 0.00 | 0.00 | 0.00 | 43 | 1016.7 |
| 20260507080039 | 57 | 229 | 1.7 | 7.0 | 0.00 | 0.00 | 0.00 | 42 | 1016.5 |
| 20260507075541 | 57 | 221 | 1.7 | 10.4 | 0.00 | 0.00 | 0.00 | 43 | 1016.4 |
| 20260507075037 | 57 | 195 | 4.3 | 12.2 | 0.00 | 0.00 | 0.00 | 41 | 1016.2 |
| 20260507074540 | 57 | 198 | 4.3 | 12.2 | 0.00 | 0.00 | 0.00 | 42 | 1016.2 |
| 20260507074035 | 57 | 216 | 4.3 | 11.3 | 0.00 | 0.00 | 0.00 | 41 | 1016.1 |
| 20260507073535 | 57 | 275 | 4.3 | 11.3 | 0.00 | 0.00 | 0.00 | 41 | 1016.0 |
| 20260507073044 | 57 | 227 | 3.5 | 10.4 | 0.00 | 0.00 | 0.00 | 40 | 1016.0 |
| 20260507072534 | 58 | 249 | 3.5 | 13.0 | 0.00 | 0.00 | 0.00 | 41 | 1015.8 |
| 20260507072034 | 58 | 198 | 3.5 | 13.0 | 0.00 | 0.00 | 0.00 | 40 | 1015.7 |
| 20260507071531 | 58 | 213 | 5.2 | 13.0 | 0.00 | 0.00 | 0.00 | 39 | 1015.6 |
| 20260507071031 | 58 | 274 | 4.3 | 13.0 | 0.00 | 0.00 | 0.00 | 39 | 1015.5 |
| 20260507070531 | 59 | 193 | 3.5 | 9.6 | 0.00 | 0.00 | 0.00 | 39 | 1015.5 |
| 20260507070031 | 59 | 300 | 3.5 | 17.4 | 0.00 | 0.00 | 0.00 | 38 | 1015.4 |
| 20260507065534 | 59 | 181 | 6.1 | 17.4 | 0.00 | 0.00 | 0.00 | 37 | 1015.4 |
| 20260507065030 | 59 | 257 | 6.1 | 17.4 | 0.00 | 0.00 | 0.00 | 36 | 1015.3 |
| 20260507064530 | 60 | 216 | 4.3 | 10.4 | 0.00 | 0.00 | 0.00 | 37 | 1015.3 |
| 20260507064029 | 60 | 184 | 5.2 | 12.2 | 0.00 | 0.00 | 0.00 | 36 | 1015.4 |
| 20260507063529 | 60 | 229 | 5.2 | 12.2 | 0.00 | 0.00 | 0.00 | 36 | 1015.2 |
| 20260507063028 | 60 | 267 | 4.3 | 12.2 | 0.00 | 0.00 | 0.00 | 35 | 1015.1 |
| 20260507062528 | 60 | 157 | 3.5 | 13.0 | 0.00 | 0.00 | 0.00 | 36 | 1015.1 |
| 20260507062028 | 61 | 229 | 6.1 | 13.0 | 0.00 | 0.00 | 0.00 | 34 | 1015.0 |
| 20260507061532 | 61 | 212 | 5.2 | 14.8 | 0.00 | 0.00 | 0.00 | 34 | 1014.8 |
| 20260507061025 | 61 | 169 | 4.3 | 14.8 | 0.00 | 0.00 | 0.00 | 33 | 1014.8 |
| 20260507060525 | 61 | 248 | 3.5 | 13.9 | 0.00 | 0.00 | 0.00 | 34 | 1014.7 |
| 20260507060030 | 62 | 215 | 5.2 | 11.3 | 0.00 | 0.00 | 0.00 | 32 | 1014.7 |
| 20260507055525 | 62 | 263 | 4.3 | 14.8 | 0.00 | 0.00 | 0.00 | 32 | 1014.5 |
| 20260507055029 | 62 | 319 | 7.0 | 14.8 | 0.00 | 0.00 | 0.00 | 31 | 1014.4 |
| 20260507054524 | 62 | 236 | 6.1 | 13.9 | 0.00 | 0.00 | 0.00 | 32 | 1014.3 |
| 20260507054024 | 62 | 126 | 4.3 | 16.5 | 0.00 | 0.00 | 0.00 | 32 | 1014.2 |
| 20260507053526 | 62 | 266 | 7.8 | 16.5 | 0.00 | 0.00 | 0.00 | 31 | 1014.2 |
| 20260507053024 | 62 | 259 | 5.2 | 13.0 | 0.00 | 0.00 | 0.00 | 32 | 1014.1 |
| 20260507052523 | 63 | 223 | 5.2 | 13.0 | 0.00 | 0.00 | 0.00 | 32 | 1014.0 |
| 20260507052023 | 63 | 159 | 5.2 | 13.9 | 0.00 | 0.00 | 0.00 | 32 | 1014.0 |
| 20260507051523 | 63 | 211 | 5.2 | 15.6 | 0.00 | 0.00 | 0.00 | 32 | 1013.9 |
| 20260507051022 | 63 | 221 | 5.2 | 19.1 | 0.00 | 0.00 | 0.00 | 31 | 1014.0 |
| 20260507050524 | 63 | 184 | 5.2 | 19.1 | 0.00 | 0.00 | 0.00 | 30 | 1013.8 |
| 20260507050030 | 63 | 162 | 7.0 | 19.1 | 0.00 | 0.00 | 0.00 | 31 | 1013.7 |
| 20260507045524 | 63 | 260 | 7.0 | 19.1 | 0.00 | 0.00 | 0.00 | 30 | 1013.6 |
| 20260507045023 | 64 | 270 | 5.2 | 20.0 | 0.00 | 0.00 | 0.00 | 31 | 1013.6 |
| 20260507044538 | 64 | 290 | 8.7 | 21.7 | 0.00 | 0.00 | 0.00 | 31 | 1013.3 |
| 20260507044020 | 64 | 260 | 7.0 | 21.7 | 0.00 | 0.00 | 0.00 | 33 | 1013.3 |
| 20260507043519 | 64 | 224 | 6.1 | 15.6 | 0.00 | 0.00 | 0.00 | 33 | 1013.3 |
| 20260507043019 | 64 | 211 | 5.2 | 18.2 | 0.00 | 0.00 | 0.00 | 33 | 1013.3 |
| 20260507042520 | 64 | 193 | 6.1 | 18.2 | 0.00 | 0.00 | 0.00 | 32 | 1013.2 |
| 20260507042018 | 64 | 277 | 7.0 | 20.0 | 0.00 | 0.00 | 0.00 | 32 | 1013.0 |
| 20260507041517 | 64 | 210 | 7.0 | 20.9 | 0.00 | 0.00 | 0.00 | 32 | 1012.8 |
| 20260507041016 | 64 | 246 | 7.8 | 22.6 | 0.00 | 0.00 | 0.00 | 32 | 1012.9 |
| 20260507040515 | 63 | 263 | 7.0 | 13.9 | 0.00 | 0.00 | 0.00 | 35 | 1012.7 |
| 20260507040014 | 64 | 163 | 5.2 | 17.4 | 0.00 | 0.00 | 0.00 | 38 | 1012.7 |
| 20260507035512 | 66 | 79 | 6.1 | 15.6 | 0.00 | 0.00 | 0.00 | 39 | 1012.7 |
| 20260507035012 | 66 | 236 | 7.0 | 14.8 | 0.00 | 0.00 | 0.00 | 39 | 1012.5 |
| 20260507034511 | 66 | 229 | 6.1 | 18.2 | 0.00 | 0.00 | 0.00 | 37 | 1012.5 |
| 20260507034009 | 66 | 252 | 9.6 | 19.1 | 0.00 | 0.00 | 0.00 | 37 | 1012.4 |
| 20260507033508 | 66 | 246 | 7.8 | 19.1 | 0.00 | 0.00 | 0.00 | 40 | 1012.3 |
| 20260507033009 | 66 | 189 | 7.0 | 14.8 | 0.00 | 0.00 | 0.00 | 47 | 1012.4 |
| 20260507032505 | 65 | 238 | 4.3 | 12.2 | 0.00 | 0.00 | 0.00 | 52 | 1012.3 |
| 20260507032006 | 64 | 222 | 2.6 | 12.2 | 0.00 | 0.00 | 0.00 | 54 | 1012.3 |
| 20260507031504 | 63 | 196 | 4.3 | 14.8 | 0.00 | 0.00 | 0.00 | 53 | 1012.4 |
| 20260507031003 | 63 | 203 | 6.1 | 17.4 | 0.00 | 0.00 | 0.00 | 53 | 1012.4 |
| 20260507030502 | 64 | 236 | 7.0 | 14.8 | 0.00 | 0.00 | 0.00 | 54 | 1012.2 |
| 20260507030000 | 64 | 229 | 2.6 | 7.0 | 0.00 | 0.00 | 0.00 | 57 | 1012.3 |
| 20260507025559 | 64 | 244 | 3.5 | 7.8 | 0.00 | 0.00 | 0.00 | 58 | 1012.3 |
| 20260507025102 | 64 | 271 | 3.5 | 9.6 | 0.00 | 0.00 | 0.00 | 59 | 1012.2 |
| 20260507024617 | 63 | 292 | 4.3 | 9.6 | 0.00 | 0.00 | 0.00 | 60 | 1012.2 |
| 20260507024102 | 63 | 241 | 4.3 | 12.2 | 0.00 | 0.00 | 0.00 | 60 | 1012.3 |
| 20260507023601 | 63 | 284 | 7.0 | 12.2 | 0.00 | 0.00 | 0.00 | 59 | 1012.4 |
| 20260507023058 | 63 | 320 | 6.1 | 13.0 | 0.00 | 0.00 | 0.00 | 60 | 1012.4 |
| 20260507022558 | 64 | 240 | 7.8 | 13.9 | 0.00 | 0.00 | 0.00 | 59 | 1012.7 |
| 20260507022058 | 64 | 260 | 6.1 | 13.9 | 0.00 | 0.00 | 0.00 | 60 | 1012.6 |
| 20260507021616 | 63 | 288 | 7.0 | 13.9 | 0.00 | 0.00 | 0.00 | 60 | 1012.7 |
| 20260507021055 | 63 | 317 | 6.1 | 13.0 | 0.00 | 0.00 | 0.00 | 61 | 1012.8 |
| 20260507020554 | 63 | 233 | 4.3 | 9.6 | 0.00 | 0.00 | 0.00 | 62 | 1012.9 |
| 20260507020104 | 63 | 252 | 5.2 | 13.0 | 0.00 | 0.00 | 0.00 | 62 | 1013.0 |
| 20260507015555 | 62 | 279 | 4.3 | 13.0 | 0.00 | 0.00 | 0.00 | 61 | 1013.2 |
| 20260507015056 | 62 | 270 | 3.5 | 8.7 | 0.00 | 0.00 | 0.00 | 63 | 1013.3 |
| 20260507014611 | 62 | 242 | 3.5 | 9.6 | 0.00 | 0.00 | 0.00 | 63 | 1013.4 |
| 20260507014053 | 62 | 329 | 3.5 | 13.0 | 0.00 | 0.00 | 0.00 | 63 | 1013.4 |
| 20260507013552 | 61 | 238 | 7.0 | 13.9 | 0.00 | 0.00 | 0.00 | 63 | 1013.6 |
| 20260507013055 | 61 | 297 | 7.8 | 13.9 | 0.00 | 0.00 | 0.00 | 63 | 1013.7 |
| 20260507012554 | 61 | 280 | 7.0 | 15.6 | 0.00 | 0.00 | 0.00 | 63 | 1013.8 |
| 20260507012052 | 62 | 281 | 7.8 | 15.6 | 0.00 | 0.00 | 0.00 | 62 | 1013.8 |
| 20260507011552 | 62 | 244 | 5.2 | 19.1 | 0.00 | 0.00 | 0.00 | 62 | 1013.9 |
| 20260507011050 | 63 | 250 | 7.8 | 14.8 | 0.00 | 0.00 | 0.00 | 61 | 1013.8 |
| 20260507010555 | 63 | 279 | 7.0 | 15.6 | 0.00 | 0.00 | 0.00 | 60 | 1013.9 |
| 20260507005549 | 62 | 244 | 6.1 | 16.5 | 0.00 | 0.00 | 0.00 | 62 | 1014.0 |
| 20260507005047 | 62 | 254 | 7.8 | 15.6 | 0.00 | 0.00 | 0.00 | 61 | 1014.0 |
| 20260507004548 | 62 | 238 | 8.7 | 17.4 | 0.00 | 0.00 | 0.00 | 62 | 1014.0 |
| 20260507004047 | 62 | 265 | 7.0 | 17.4 | 0.00 | 0.00 | 0.00 | 62 | 1014.0 |
| 20260507003546 | 62 | 228 | 7.0 | 14.8 | 0.00 | 0.00 | 0.00 | 62 | 1014.0 |
| 20260507003044 | 62 | 268 | 5.2 | 13.9 | 0.00 | 0.00 | 0.00 | 64 | 1014.0 |
| 20260507002544 | 61 | 224 | 6.1 | 14.8 | 0.00 | 0.00 | 0.00 | 63 | 1014.2 |
| 20260507002045 | 61 | 223 | 8.7 | 16.5 | 0.00 | 0.00 | 0.00 | 63 | 1014.2 |
| 20260507001548 | 61 | 298 | 7.8 | 16.5 | 0.00 | 0.00 | 0.00 | 63 | 1014.2 |
| 20260507001043 | 61 | 248 | 8.7 | 13.9 | 0.00 | 0.00 | 0.00 | 63 | 1014.2 |
| 20260507000543 | 61 | 264 | 4.3 | 15.6 | 0.00 | 0.00 | 0.00 | 65 | 1014.3 |
| 20260507000044 | 61 | 251 | 7.0 | 15.6 | 0.00 | 0.00 | 0.00 | 65 | 1014.3 |
| 20260506235542 | 60 | 237 | 5.2 | 12.2 | 0.00 | 0.00 | 0.00 | 65 | 1014.3 |
| 20260506235040 | 60 | 240 | 4.3 | 13.9 | 0.00 | 0.00 | 0.00 | 66 | 1014.4 |
| 20260506234541 | 60 | 247 | 7.0 | 13.9 | 0.00 | 0.00 | 0.00 | 65 | 1014.5 |
| 20260506234041 | 60 | 293 | 5.2 | 12.2 | 0.00 | 0.00 | 0.00 | 67 | 1014.5 |
| 20260506233540 | 60 | 244 | 7.0 | 12.2 | 0.00 | 0.00 | 0.00 | 66 | 1014.3 |
| 20260506233040 | 60 | 246 | 4.3 | 9.6 | 0.00 | 0.00 | 0.00 | 68 | 1014.4 |
| 20260506232539 | 60 | 244 | 4.3 | 12.2 | 0.00 | 0.00 | 0.00 | 67 | 1014.4 |
| 20260506232040 | 60 | 244 | 6.1 | 12.2 | 0.00 | 0.00 | 0.00 | 66 | 1014.4 |
| 20260506231539 | 60 | 288 | 5.2 | 13.0 | 0.00 | 0.00 | 0.00 | 67 | 1014.5 |
| 20260506231042 | 60 | 244 | 5.2 | 13.0 | 0.00 | 0.00 | 0.00 | 67 | 1014.5 |
| 20260506230539 | 59 | 257 | 5.2 | 15.6 | 0.00 | 0.00 | 0.00 | 67 | 1014.5 |
| 20260506230037 | 59 | 213 | 7.8 | 15.6 | 0.00 | 0.00 | 0.00 | 67 | 1014.4 |
| 20260506225538 | 59 | 234 | 7.0 | 13.9 | 0.00 | 0.00 | 0.00 | 68 | 1014.4 |
| 20260506225036 | 59 | 280 | 4.3 | 13.0 | 0.00 | 0.00 | 0.00 | 69 | 1014.4 |
| 20260506224537 | 59 | 251 | 6.1 | 13.0 | 0.00 | 0.00 | 0.00 | 70 | 1014.3 |
| 20260506224035 | 58 | 255 | 7.0 | 11.3 | 0.00 | 0.00 | 0.00 | 71 | 1014.4 |
| 20260506223535 | 58 | 243 | 5.2 | 12.2 | 0.00 | 0.00 | 0.00 | 71 | 1014.4 |
| 20260506223037 | 58 | 259 | 6.1 | 12.2 | 0.00 | 0.00 | 0.00 | 72 | 1014.4 |
| 20260506222535 | 58 | 239 | 2.6 | 10.4 | 0.00 | 0.00 | 0.00 | 73 | 1014.4 |
| 20260506222035 | 58 | 271 | 3.5 | 10.4 | 0.00 | 0.00 | 0.00 | 74 | 1014.4 |
| 20260506221534 | 57 | 232 | 3.5 | 12.2 | 0.00 | 0.00 | 0.00 | 74 | 1014.4 |
| 20260506221034 | 57 | 262 | 4.3 | 13.0 | 0.00 | 0.00 | 0.00 | 75 | 1014.3 |
| 20260506220532 | 57 | 247 | 5.2 | 13.0 | 0.00 | 0.00 | 0.00 | 76 | 1014.4 |
| 20260506220036 | 57 | 262 | 6.1 | 12.2 | 0.00 | 0.00 | 0.00 | 77 | 1014.3 |
| 20260506215529 | 56 | 234 | 5.2 | 12.2 | 0.00 | 0.00 | 0.00 | 77 | 1014.2 |
| 20260506215029 | 56 | 296 | 5.2 | 10.4 | 0.00 | 0.00 | 0.00 | 78 | 1014.2 |
| 20260506214528 | 56 | 227 | 3.5 | 12.2 | 0.00 | 0.00 | 0.00 | 79 | 1014.1 |
| 20260506214028 | 56 | 229 | 5.2 | 12.2 | 0.00 | 0.00 | 0.00 | 78 | 1014.1 |
| 20260506213526 | 56 | 233 | 5.2 | 10.4 | 0.00 | 0.00 | 0.00 | 79 | 1014.1 |
| 20260506213026 | 56 | 230 | 4.3 | 13.0 | 0.00 | 0.00 | 0.00 | 79 | 1013.9 |
| 20260506212525 | 56 | 360 | 7.0 | 13.9 | 0.00 | 0.00 | 0.00 | 79 | 1013.8 |
| 20260506212024 | 56 | 230 | 7.8 | 13.9 | 0.00 | 0.00 | 0.00 | 81 | 1013.7 |
| 20260506211522 | 56 | 221 | 6.1 | 11.3 | 0.00 | 0.00 | 0.00 | 82 | 1013.6 |
| 20260506211020 | 56 | 239 | 4.3 | 12.2 | 0.00 | 0.00 | 0.00 | 84 | 1013.6 |
| 20260506210522 | 55 | 275 | 7.0 | 12.2 | 0.00 | 0.00 | 0.00 | 86 | 1013.5 |
| 20260506210019 | 54 | 263 | 5.2 | 9.6 | 0.00 | 0.00 | 0.00 | 86 | 1013.6 |
| 20260506205516 | 54 | 294 | 2.6 | 6.1 | 0.00 | 0.00 | 0.00 | 86 | 1013.6 |
| 20260506205014 | 54 | 281 | 1.7 | 5.2 | 0.00 | 0.00 | 0.00 | 86 | 1013.6 |
| 20260506204512 | 54 | 284 | 1.7 | 5.2 | 0.00 | 0.00 | 0.00 | 86 | 1013.5 |
| 20260506204010 | 54 | 273 | 2.6 | 7.8 | 0.00 | 0.00 | 0.00 | 86 | 1013.4 |
| 20260506203510 | 54 | 294 | 3.5 | 8.7 | 0.00 | 0.00 | 0.00 | 86 | 1013.3 |
| 20260506203010 | 54 | 264 | 3.5 | 8.7 | 0.00 | 0.00 | 0.00 | 86 | 1013.2 |
| 20260506202511 | 54 | 287 | 1.7 | 7.8 | 0.00 | 0.00 | 0.00 | 87 | 1013.0 |
| 20260506202007 | 54 | 302 | 2.6 | 7.8 | 0.00 | 0.00 | 0.00 | 87 | 1012.9 |
| 20260506201509 | 54 | 257 | 2.6 | 7.8 | 0.00 | 0.00 | 0.00 | 88 | 1013.1 |
| 20260506201006 | 54 | 263 | 2.6 | 8.7 | 0.00 | 0.00 | 0.00 | 89 | 1013.1 |
| 20260506200505 | 53 | 239 | 2.6 | 8.7 | 0.00 | 0.00 | 0.00 | 89 | 1012.9 |
| 20260506200008 | 53 | 294 | 0.0 | 2.6 | 0.00 | 0.00 | 0.00 | 89 | 1012.8 |
| 20260506195504 | 53 | 45 | 0.0 | 1.7 | 0.00 | 0.00 | 0.00 | 88 | 1012.7 |
| 20260506195003 | 54 | 45 | 0.9 | 3.5 | 0.00 | 0.00 | 0.00 | 88 | 1012.7 |
| 20260506194502 | 54 | 323 | 0.0 | 3.5 | 0.00 | 0.00 | 0.00 | 88 | 1012.6 |
| 20260506194001 | 54 | 299 | 0.0 | 6.1 | 0.00 | 0.00 | 0.00 | 88 | 1012.7 |
| 20260506193501 | 54 | 306 | 1.7 | 6.1 | 0.00 | 0.00 | 0.00 | 88 | 1012.6 |
| 20260506193002 | 54 | 289 | 1.7 | 6.1 | 0.00 | 0.00 | 0.00 | 88 | 1012.5 |
| 20260506192600 | 54 | 273 | 2.6 | 6.1 | 0.00 | 0.00 | 0.00 | 89 | 1012.4 |
| 20260506192100 | 54 | 277 | 2.6 | 7.0 | 0.00 | 0.00 | 0.00 | 89 | 1012.3 |
| 20260506191600 | 54 | 296 | 2.6 | 7.0 | 0.00 | 0.00 | 0.00 | 89 | 1012.4 |
| 20260506191058 | 55 | 252 | 1.7 | 7.0 | 0.00 | 0.00 | 0.00 | 89 | 1012.2 |
| 20260506190559 | 55 | 265 | 1.7 | 7.0 | 0.00 | 0.00 | 0.00 | 89 | 1012.3 |
| 20260506190057 | 55 | 273 | 3.5 | 7.0 | 0.00 | 0.00 | 0.00 | 90 | 1012.4 |
| 20260506185555 | 55 | 271 | 1.7 | 7.8 | 0.00 | 0.00 | 0.00 | 90 | 1012.4 |
| 20260506185055 | 55 | 293 | 3.5 | 8.7 | 0.00 | 0.00 | 0.00 | 90 | 1012.5 |
| 20260506184558 | 55 | 281 | 4.3 | 8.7 | 0.00 | 0.00 | 0.00 | 90 | 1012.6 |
| 20260506184055 | 56 | 290 | 4.3 | 8.7 | 0.00 | 0.00 | 0.00 | 90 | 1012.5 |
| 20260506183555 | 56 | 253 | 3.5 | 7.8 | 0.00 | 0.00 | 0.00 | 91 | 1012.5 |
| 20260506183053 | 56 | 284 | 1.7 | 7.8 | 0.00 | 0.00 | 0.00 | 91 | 1012.5 |
| 20260506182554 | 56 | 295 | 2.6 | 7.8 | 0.00 | 0.00 | 0.00 | 92 | 1012.5 |
| 20260506182049 | 57 | 277 | 2.6 | 7.8 | 0.00 | 0.00 | 0.00 | 92 | 1012.5 |
| 20260506181549 | 57 | 275 | 3.5 | 7.8 | 0.00 | 0.00 | 0.00 | 92 | 1012.5 |
| 20260506181046 | 57 | 250 | 2.6 | 9.6 | 0.00 | 0.00 | 0.00 | 92 | 1012.5 |
| 20260506180545 | 58 | 265 | 4.3 | 9.6 | 0.00 | 0.00 | 0.00 | 92 | 1012.5 |
| 20260506180045 | 58 | 246 | 5.2 | 9.6 | 0.00 | 0.00 | 0.00 | 92 | 1012.4 |
| 20260506175544 | 58 | 271 | 6.1 | 9.6 | 0.00 | 0.00 | 0.00 | 93 | 1012.4 |
| 20260506175042 | 58 | 268 | 4.3 | 8.7 | 0.00 | 0.00 | 0.00 | 92 | 1012.4 |
| 20260506174542 | 58 | 302 | 4.3 | 8.7 | 0.00 | 0.00 | 0.00 | 92 | 1012.4 |
| 20260506174043 | 59 | 259 | 4.3 | 9.6 | 0.00 | 0.00 | 0.00 | 92 | 1012.4 |
| 20260506173542 | 59 | 248 | 4.3 | 9.6 | 0.00 | 0.00 | 0.00 | 92 | 1012.3 |
| 20260506173048 | 59 | 259 | 5.2 | 8.7 | 0.00 | 0.00 | 0.00 | 92 | 1012.4 |
| 20260506172537 | 60 | 290 | 4.3 | 8.7 | 0.00 | 0.00 | 0.00 | 91 | 1012.4 |
| 20260506172036 | 60 | 286 | 4.3 | 8.7 | 0.00 | 0.00 | 0.00 | 91 | 1012.4 |
| 20260506171549 | 60 | 252 | 5.2 | 8.7 | 0.00 | 0.00 | 0.00 | 91 | 1012.4 |
| 20260506171035 | 60 | 284 | 4.3 | 8.7 | 0.00 | 0.00 | 0.00 | 91 | 1012.4 |
| 20260506170533 | 60 | 257 | 3.5 | 10.4 | 0.00 | 0.00 | 0.00 | 91 | 1012.5 |
| 20260506170033 | 60 | 220 | 5.2 | 10.4 | 0.00 | 0.00 | 0.00 | 91 | 1012.6 |
| 20260506165536 | 61 | 288 | 4.3 | 7.8 | 0.00 | 0.00 | 0.00 | 90 | 1012.6 |
| 20260506165033 | 61 | 258 | 4.3 | 8.7 | 0.00 | 0.00 | 0.00 | 90 | 1012.7 |
| 20260506164532 | 61 | 297 | 5.2 | 8.7 | 0.00 | 0.00 | 0.00 | 89 | 1012.7 |
| 20260506164031 | 62 | 277 | 5.2 | 10.4 | 0.00 | 0.00 | 0.00 | 89 | 1012.7 |
| 20260506163532 | 62 | 261 | 5.2 | 10.4 | 0.00 | 0.00 | 0.00 | 89 | 1012.7 |
| 20260506163046 | 62 | 239 | 5.2 | 9.6 | 0.00 | 0.00 | 0.00 | 89 | 1012.8 |
| 20260506162532 | 62 | 301 | 3.5 | 8.7 | 0.00 | 0.00 | 0.00 | 90 | 1012.8 |
| 20260506162033 | 61 | 253 | 4.3 | 8.7 | 0.00 | 0.00 | 0.00 | 90 | 1012.8 |
| 20260506161530 | 61 | 247 | 3.5 | 7.8 | 0.00 | 0.00 | 0.00 | 90 | 1012.9 |
| 20260506161027 | 61 | 260 | 2.6 | 7.8 | 0.00 | 0.00 | 0.00 | 91 | 1012.9 |
| 20260506160527 | 61 | 233 | 4.3 | 7.0 | 0.00 | 0.00 | 0.00 | 92 | 1012.9 |
| 20260506160027 | 61 | 260 | 1.7 | 4.3 | 0.00 | 0.00 | 0.00 | 92 | 1013.0 |
| 20260506155524 | 60 | 256 | 0.0 | 4.3 | 0.00 | 0.00 | 0.00 | 92 | 1013.1 |
| 20260506155025 | 60 | 277 | 0.0 | 1.7 | 0.00 | 0.00 | 0.00 | 91 | 1013.0 |
| 20260506154531 | 61 | 268 | 0.9 | 2.6 | 0.00 | 0.00 | 0.00 | 91 | 1013.0 |
| 20260506154026 | 61 | 293 | 0.0 | 3.5 | 0.00 | 0.00 | 0.00 | 91 | 1013.0 |
| 20260506153524 | 61 | 275 | 0.9 | 7.0 | 0.00 | 0.00 | 0.00 | 91 | 1013.0 |
| 20260506153023 | 61 | 254 | 0.0 | 7.0 | 0.00 | 0.00 | 0.00 | 91 | 1013.1 |
| 20260506152525 | 61 | 240 | 1.7 | 7.0 | 0.00 | 0.00 | 0.00 | 92 | 1013.1 |
| 20260506152022 | 61 | 257 | 2.6 | 6.1 | 0.00 | 0.00 | 0.00 | 92 | 1013.1 |
| 20260506151522 | 60 | 283 | 1.7 | 3.5 | 0.00 | 0.00 | 0.00 | 92 | 1013.2 |
| 20260506151024 | 61 | 301 | 1.7 | 4.3 | 0.00 | 0.00 | 0.00 | 92 | 1013.2 |
| 20260506150520 | 61 | 287 | 1.7 | 4.3 | 0.00 | 0.00 | 0.00 | 92 | 1013.2 |
| 20260506150020 | 61 | 277 | 1.7 | 3.5 | 0.00 | 0.00 | 0.00 | 92 | 1013.2 |
| 20260506145520 | 61 | 293 | 1.7 | 3.5 | 0.00 | 0.00 | 0.00 | 92 | 1013.2 |
| 20260506145019 | 61 | 320 | 1.7 | 4.3 | 0.00 | 0.00 | 0.00 | 92 | 1013.3 |
| 20260506144518 | 61 | 289 | 1.7 | 4.3 | 0.00 | 0.00 | 0.00 | 93 | 1013.3 |
| 20260506144018 | 61 | 296 | 1.7 | 5.2 | 0.00 | 0.00 | 0.00 | 93 | 1013.4 |
| 20260506143519 | 61 | 284 | 0.9 | 4.3 | 0.00 | 0.00 | 0.00 | 93 | 1013.4 |
| 20260506143018 | 61 | 279 | 0.9 | 4.3 | 0.00 | 0.00 | 0.00 | 93 | 1013.4 |
| 20260506142515 | 60 | 297 | 1.7 | 4.3 | 0.00 | 0.00 | 0.00 | 93 | 1013.4 |
| 20260506142016 | 60 | 297 | 1.7 | 3.5 | 0.00 | 0.00 | 0.00 | 93 | 1013.5 |
| 20260506141515 | 60 | 271 | 0.0 | 2.6 | 0.00 | 0.00 | 0.00 | 93 | 1013.6 |
| 20260506141016 | 60 | 276 | 0.9 | 2.6 | 0.00 | 0.00 | 0.00 | 93 | 1013.6 |
| 20260506140520 | 60 | 269 | 0.0 | 0.9 | 0.00 | 0.00 | 0.00 | 92 | 1013.6 |
| 20260506140012 | 60 | 269 | 0.0 | 1.7 | 0.00 | 0.00 | 0.00 | 92 | 1013.6 |
| 20260506135511 | 60 | 269 | 0.0 | 1.7 | 0.00 | 0.00 | 0.00 | 92 | 1013.7 |
| 20260506135012 | 60 | 269 | 0.0 | 1.7 | 0.00 | 0.00 | 0.00 | 92 | 1013.7 |
| 20260506134513 | 60 | 268 | 0.0 | 1.7 | 0.00 | 0.00 | 0.00 | 91 | 1013.7 |
| 20260506134011 | 60 | 265 | 0.0 | 1.7 | 0.00 | 0.00 | 0.00 | 91 | 1013.7 |
| 20260506133511 | 60 | 264 | 0.0 | 0.0 | 0.00 | 0.00 | 0.00 | 91 | 1013.8 |
| 20260506133011 | 60 | 264 | 0.0 | 0.9 | 0.00 | 0.00 | 0.00 | 91 | 1013.8 |
| 20260506132509 | 61 | 264 | 0.0 | 0.9 | 0.00 | 0.00 | 0.00 | 91 | 1013.8 |
| 20260506132013 | 61 | 264 | 0.0 | 0.9 | 0.00 | 0.00 | 0.00 | 91 | 1013.9 |
| 20260506131510 | 61 | 264 | 0.0 | 0.9 | 0.00 | 0.00 | 0.00 | 91 | 1013.9 |
| 20260506131008 | 61 | 264 | 0.0 | 0.9 | 0.00 | 0.00 | 0.00 | 91 | 1013.9 |
| 20260506130511 | 61 | 264 | 0.0 | 0.9 | 0.00 | 0.00 | 0.00 | 91 | 1014.0 |
| 20260506130008 | 61 | 264 | 0.0 | 1.7 | 0.00 | 0.00 | 0.00 | 91 | 1014.1 |
| 20260506125505 | 61 | 264 | 0.0 | 1.7 | 0.00 | 0.00 | 0.00 | 92 | 1014.2 |
| 20260506125009 | 61 | 264 | 0.0 | 1.7 | 0.00 | 0.00 | 0.00 | 92 | 1014.3 |
| 20260506124505 | 61 | 262 | 0.0 | 0.0 | 0.00 | 0.00 | 0.00 | 91 | 1014.4 |
| 20260506124004 | 61 | 262 | 0.0 | 0.0 | 0.00 | 0.00 | 0.00 | 91 | 1014.4 |
| 20260506123504 | 61 | 262 | 0.0 | 1.7 | 0.00 | 0.00 | 0.00 | 91 | 1014.5 |
| 20260506123004 | 61 | 262 | 0.0 | 1.7 | 0.00 | 0.00 | 0.00 | 90 | 1014.6 |
| 20260506122505 | 61 | 262 | 0.0 | 0.9 | 0.00 | 0.00 | 0.00 | 90 | 1014.6 |
| 20260506122001 | 61 | 262 | 0.0 | 0.9 | 0.00 | 0.00 | 0.00 | 89 | 1014.7 |
| 20260506121500 | 62 | 262 | 0.0 | 2.6 | 0.00 | 0.00 | 0.00 | 88 | 1014.8 |
| 20260506121100 | 62 | 262 | 0.9 | 2.6 | 0.00 | 0.00 | 0.00 | 88 | 1014.8 |
| 20260506120600 | 62 | 298 | 0.0 | 0.0 | 0.00 | 0.00 | 0.00 | 88 | 1014.9 |
| 20260506120111 | 62 | 298 | 0.0 | 0.0 | 0.00 | 0.00 | 0.00 | 88 | 1014.9 |
| 20260506115600 | 62 | 298 | 0.0 | 0.0 | 0.00 | 0.00 | 0.00 | 88 | 1014.9 |
| 20260506115058 | 62 | 298 | 0.0 | 0.0 | 0.00 | 0.00 | 0.00 | 88 | 1015.0 |
| 20260506114623 | 62 | 298 | 0.0 | 0.0 | 0.00 | 0.00 | 0.00 | 88 | 1015.0 |
| 20260506114058 | 63 | 298 | 0.0 | 0.9 | 0.00 | 0.00 | 0.00 | 87 | 1015.1 |
| 20260506113557 | 63 | 298 | 0.0 | 0.9 | 0.00 | 0.00 | 0.00 | 87 | 1015.2 |
| 20260506113058 | 63 | 298 | 0.0 | 1.7 | 0.00 | 0.00 | 0.00 | 87 | 1015.2 |
| 20260506112559 | 63 | 298 | 0.0 | 1.7 | 0.00 | 0.00 | 0.00 | 87 | 1015.2 |
| 20260506112056 | 63 | 298 | 0.0 | 1.7 | 0.00 | 0.00 | 0.00 | 88 | 1015.2 |
| 20260506111557 | 63 | 309 | 0.0 | 1.7 | 0.00 | 0.00 | 0.00 | 88 | 1015.3 |
| 20260506111055 | 63 | 310 | 0.0 | 0.9 | 0.00 | 0.00 | 0.00 | 88 | 1015.4 |
| 20260506110555 | 63 | 310 | 0.0 | 0.0 | 0.00 | 0.00 | 0.00 | 88 | 1015.5 |
| 20260506110055 | 63 | 310 | 0.0 | 0.0 | 0.00 | 0.00 | 0.00 | 88 | 1015.5 |